Вернуться в каталог

STARLINK-11377

АктивенСвязьVLEO
NORAD 62013·PAYLOAD·🇺🇸 United States

Запущен Nov 18, 2024 с Vandenberg Space Force Base

Loading…

Ближайшие Пролёты (ближайшие 24 часа)

TLE

СвежийSource: CelesTrak SupGP

Эпоха: Sep 15, 2026, 02:21 UTC

1 62013C 24213F   26258.09840278 -.00072373  00000+0 -59601-3 0  2580
2 62013  53.1572 187.4353 0001240  87.3118 341.2674 15.69751380    16

Отслеживайте STARLINK-11377 в реальном времени с AllMySat

Download on the App Store